Tracking 30995 objects as of 7-Jul-2025
HD Live streaming from Space Station
objects crossing your sky now

COSMOS 374 DEB

Track COSMOS 374 DEB now!
10-day predictions


NORAD ID: 18517
Int'l Code: 1970-089DD
Perigee: 488.9 km
Apogee: 999.7 km
Inclination: 62.4 °
Period: 99.6 minutes
Semi major axis: 7115 km
RCS: 0.0081 m2 (small)
Launch date: October 23, 1970
Source: Commonwealth of Independent States (former USSR) (CIS)
Launch site: TYURATAM MISSILE AND SPACE COMPLEX (TTMTR)

Note: This is SATELLITE DEBRIS
Your satellite tracking list
Your tracking list is empty




NASA's NSSDC Master Catalog

Two Line Element Set (TLE):
1 18517U 70089DD  25187.22485261  .00017232  00000-0  21301-2 0  9993
2 18517  62.3845 111.0493 0358933 109.6689 254.3478 14.46473385823697
Source of the keplerian elements: AFSPC